Location: Biltmore Gardens
(41.6070°N, 83.4666°W)
Time: 09:22:33
(UTC+00:00)

Cosmos 2344 - Pass Details

Date: 29 October 2020
Orbit: 1246 x 2997 km, 63.3° (Epoch: 03 December)

Event Time Altitude Azimuth Distance (km) Brightness Sun altitude
Exits shadow 11:08:04 10° 301° (WNW) 3,248 5.1 -10.8°
Maximum altitude 11:13:18 19° 345° (NNW) 2,761 5.1 -9.8°
Drops below altitude 10° 11:19:16 10° 29° (NNE) 3,707 6.3 -8.7°
Sets 11:23:54 0° 46° (NE) 4,970 7.2 -7.9°
